Погода в Гурском

Россия / Хабаровский край     50°18′54″N   138°05′56″E
темп.,
°C
ветер,
м/с
пор.,
м/с
влажн.,
%
обл.,
%
осадки,
мм/ч
давл.,
гПа
погр.,
м
17 мая, пн
пн1701:00+7юз11711 0.0 100110
04:00+5ююв22760 0.0 100110
07:00+8ю12693 0.0 100192
10:00+13юз45525 0.0 1000825
13:00+17зюз55400 0.0 9991519
16:00+18юз69392 0.0 9981492
19:00+17юз5114866 0.0 998795
22:00+12ююз386125 0.0 999159
18 мая, вт
вт1801:00+10ю336524 0.0 100047
04:00+9ююв22754 0.0 100116
07:00+11ююв236958 0.0 1000119
10:00+16юз5105475 0.0 10001130
13:00+18зюз71455100 0.0 9981558
16:00+19з41154100 0.0 9981549
19:00+16сз4776100 1.9 997450
22:00+12ююз31197100 18.8 1001747
19 мая, ср
ср1901:00+12юз129772 1.1 100189
04:00+11ююз129994 1.6 100262
07:00+12з1490100 0.8 1004368
10:00+14з237193 1.3 10041028
13:00+16зюз355943 0.3 10041413
16:00+17зюз5551100 0.3 10041701
19:00+15ююз256099 0.0 1006326
22:00+11юв2258100 0.0 100714
20 мая, чт
чт2001:00+9юв22573 0.0 100915
04:00+8юв22605 0.0 100916
07:00+11вюв125687 0.0 100877
10:00+17ю2438100 0.0 1007798
13:00+19юз47395 0.0 10051436
16:00+19зюз71152100 0.0 10041489
19:00+16ю31175100 0.4 1004656
22:00+13ююз3390100 0.8 100446
21 мая, пт
пт2101:00+12ююз379592 0.1 1004239
04:00+13юз2799100 0.5 1005418
07:00+12зсз129894 0.6 1006177
10:00+14ссз347751 0.8 1008684
13:00+17ссз344766 0.0 10091107
16:00+18с33401 0.0 10091158
19:00+17с23504 0.0 1008183
22:00+12всв22624 0.0 101018